Time,TemperatureF,DewpointF,PressureIn,WindDirection,WindDirectionDegrees,WindSpeedMPH,WindSpeedGustMPH,Humidity,HourlyPrecipIn,Conditions,Clouds,dailyrainin,SoftwareType,DateUTC
2013-06-13 00:01:00,75.0,74.0,30.05,North,0,0.0,0.0,98,99.99,,,-99.99,,2013-06-13 04:01:00,
2013-06-13 00:12:00,75.0,74.0,30.05,North,0,0.0,0.0,98,99.99,,,-99.99,,2013-06-13 04:12:00,
2013-06-13 00:22:00,74.0,74.0,30.04,North,0,0.0,0.0,99,99.99,,,-99.99,,2013-06-13 04:22:00,
2013-06-13 00:32:00,74.0,74.0,30.04,North,0,0.0,0.0,100,99.99,,,-99.99,,2013-06-13 04:32:00,
2013-06-13 00:43:00,74.0,74.0,30.05,SSE,153,1.0,4.0,100,99.99,,,-99.99,,2013-06-13 04:43:00,
2013-06-13 00:53:00,74.0,74.0,30.04,SSE,153,2.0,4.0,100,99.99,,,-99.99,,2013-06-13 04:53:00,
2013-06-13 01:02:00,74.0,74.0,30.05,SSE,153,5.0,7.0,100,99.99,,,-99.99,,2013-06-13 05:02:00,
2013-06-13 01:12:00,74.0,74.0,30.04,SSE,167,2.0,4.0,100,99.99,,,-99.99,,2013-06-13 05:12:00,
2013-06-13 01:24:00,74.0,74.0,30.04,South,190,3.0,5.0,100,99.99,,,-99.99,,2013-06-13 05:24:00,
2013-06-13 01:33:00,74.0,74.0,30.04,South,174,3.0,5.0,100,99.99,,,-99.99,,2013-06-13 05:33:00,
2013-06-13 01:43:00,73.0,73.0,30.03,SSW,200,2.0,3.0,100,99.99,,,-99.99,,2013-06-13 05:43:00,
2013-06-13 01:53:00,73.0,73.0,30.03,SSW,200,1.0,2.0,100,99.99,,,-99.99,,2013-06-13 05:53:00,
2013-06-13 02:02:00,73.0,73.0,30.03,SSW,200,2.0,3.0,100,99.99,,,-99.99,,2013-06-13 06:02:00,
2013-06-13 02:11:00,73.0,73.0,30.02,South,188,2.0,3.0,100,99.99,,,-99.99,,2013-06-13 06:11:00,
2013-06-13 02:22:00,73.0,73.0,30.02,SW,226,2.0,4.0,100,99.99,,,-99.99,,2013-06-13 06:22:00,
2013-06-13 02:33:00,73.0,73.0,30.02,SSW,204,3.0,4.0,100,99.99,,,-99.99,,2013-06-13 06:33:00,
2013-06-13 02:44:00,73.0,73.0,30.01,SSW,208,3.0,5.0,100,99.99,,,-99.99,,2013-06-13 06:44:00,
2013-06-13 02:52:00,73.0,73.0,30.01,SSW,203,3.0,5.0,100,99.99,,,-99.99,,2013-06-13 06:52:00,
2013-06-13 03:01:00,74.0,74.0,30.01,SSW,193,3.0,5.0,100,99.99,,,-99.99,,2013-06-13 07:01:00,
2013-06-13 03:12:00,74.0,74.0,30.01,South,186,3.0,5.0,100,99.99,,,-99.99,,2013-06-13 07:12:00,
2013-06-13 03:22:00,73.0,73.0,30.01,SSW,200,1.0,3.0,100,99.99,,,-99.99,,2013-06-13 07:22:00,
2013-06-13 03:33:00,73.0,73.0,30.00,SSW,203,2.0,3.0,100,99.99,,,-99.99,,2013-06-13 07:33:00,
2013-06-13 03:42:00,73.0,73.0,30.01,SSW,211,2.0,4.0,100,99.99,,,-99.99,,2013-06-13 07:42:00,
2013-06-13 03:52:00,73.0,73.0,30.01,South,190,3.0,5.0,100,99.99,,,-99.99,,2013-06-13 07:52:00,
2013-06-13 04:01:00,73.0,73.0,30.01,WSW,243,3.0,6.0,100,99.99,,,-99.99,,2013-06-13 08:01:00,
2013-06-13 04:11:00,73.0,73.0,30.01,WSW,246,3.0,6.0,100,99.99,,,-99.99,,2013-06-13 08:11:00,
2013-06-13 04:22:00,72.0,72.0,30.01,SW,232,3.0,7.0,100,99.99,,,-99.99,,2013-06-13 08:22:00,
2013-06-13 04:32:00,72.0,72.0,30.01,SW,224,3.0,6.0,100,99.99,,,-99.99,,2013-06-13 08:32:00,
2013-06-13 04:43:00,72.0,72.0,30.01,SW,219,4.0,7.0,100,99.99,,,-99.99,,2013-06-13 08:43:00,
2013-06-13 04:52:00,72.0,72.0,30.00,SSW,193,3.0,5.0,100,99.99,,,-99.99,,2013-06-13 08:52:00,
2013-06-13 05:02:00,72.0,72.0,30.00,SSW,200,3.0,5.0,100,99.99,,,-99.99,,2013-06-13 09:02:00,
2013-06-13 05:12:00,72.0,72.0,29.99,SW,224,4.0,6.0,100,99.99,,,-99.99,,2013-06-13 09:12:00,
2013-06-13 05:22:00,72.0,72.0,29.99,SW,218,4.0,7.0,100,99.99,,,-99.99,,2013-06-13 09:22:00,
2013-06-13 05:32:00,72.0,72.0,29.99,SW,228,2.0,4.0,100,99.99,,,-99.99,,2013-06-13 09:32:00,
2013-06-13 05:42:00,72.0,72.0,29.99,SW,219,3.0,4.0,100,99.99,,,-99.99,,2013-06-13 09:42:00,
2013-06-13 05:52:00,72.0,72.0,29.99,SW,235,3.0,6.0,100,99.99,,,-99.99,,2013-06-13 09:52:00,
2013-06-13 06:01:00,73.0,73.0,30.00,SSW,211,3.0,4.0,100,99.99,,,-99.99,,2013-06-13 10:01:00,
2013-06-13 06:11:00,73.0,73.0,30.00,SW,228,3.0,5.0,100,99.99,,,-99.99,,2013-06-13 10:11:00,
2013-06-13 06:22:00,73.0,73.0,30.00,WSW,252,1.0,2.0,100,99.99,,,-99.99,,2013-06-13 10:22:00,
2013-06-13 06:33:00,72.0,72.0,30.01,SW,235,1.0,1.0,100,99.99,,,-99.99,,2013-06-13 10:33:00,
2013-06-13 06:43:00,72.0,72.0,30.01,North,352,1.0,3.0,100,99.99,,,-99.99,,2013-06-13 10:43:00,
2013-06-13 06:53:00,72.0,72.0,30.01,North,0,0.0,0.0,100,99.99,,,-99.99,,2013-06-13 10:53:00,
2013-06-13 07:02:00,72.0,72.0,30.02,North,0,0.0,0.0,100,99.99,,,-99.99,,2013-06-13 11:02:00,
2013-06-13 07:11:00,72.0,72.0,30.02,North,0,0.0,0.0,100,99.99,,,-99.99,,2013-06-13 11:11:00,
2013-06-13 07:23:00,72.0,72.0,30.02,North,0,0.0,0.0,100,99.99,,,-99.99,,2013-06-13 11:23:00,
2013-06-13 07:32:00,72.0,72.0,30.02,North,0,0.0,0.0,100,99.99,,,-99.99,,2013-06-13 11:32:00,
2013-06-13 07:42:00,73.0,73.0,30.02,North,0,0.0,0.0,100,99.99,,,-99.99,,2013-06-13 11:42:00,
2013-06-13 07:52:00,73.0,73.0,30.02,North,0,0.0,0.0,100,99.99,,,-99.99,,2013-06-13 11:52:00,
2013-06-13 08:01:00,74.0,74.0,30.02,SW,232,1.0,3.0,100,99.99,,,-99.99,,2013-06-13 12:01:00,
2013-06-13 08:12:00,75.0,75.0,30.03,SW,218,2.0,4.0,100,99.99,,,-99.99,,2013-06-13 12:12:00,
2013-06-13 08:22:00,76.0,76.0,30.03,West,278,3.0,5.0,100,99.99,,,-99.99,,2013-06-13 12:22:00,
2013-06-13 08:35:00,77.0,77.0,30.03,WNW,298,3.0,5.0,100,99.99,,,-99.99,,2013-06-13 12:35:00,
2013-06-13 08:43:00,77.0,77.0,30.03,NNW,343,3.0,5.0,100,99.99,,,-99.99,,2013-06-13 12:43:00,
2013-06-13 08:52:00,78.0,78.0,30.04,WNW,297,4.0,6.0,100,99.99,,,-99.99,,2013-06-13 12:52:00,
2013-06-13 09:01:00,79.0,79.0,30.04,NNW,329,4.0,8.0,100,99.99,,,-99.99,,2013-06-13 13:01:00,
2013-06-13 09:11:00,80.0,79.0,30.04,NW,322,5.0,8.0,97,99.99,,,-99.99,,2013-06-13 13:11:00,
2013-06-13 09:22:00,81.0,80.0,30.04,NNW,333,5.0,7.0,97,99.99,,,-99.99,,2013-06-13 13:22:00,
2013-06-13 09:33:00,81.0,80.0,30.04,WNW,297,5.0,8.0,96,99.99,,,-99.99,,2013-06-13 13:33:00,
2013-06-13 09:43:00,82.0,78.0,30.04,NNW,346,5.0,8.0,88,99.99,,,-99.99,,2013-06-13 13:43:00,
2013-06-13 09:53:00,83.0,78.0,30.04,NW,307,4.0,7.0,86,99.99,,,-99.99,,2013-06-13 13:53:00,
2013-06-13 10:02:00,83.0,77.0,30.04,WNW,301,5.0,7.0,82,99.99,,,-99.99,,2013-06-13 14:02:00,
2013-06-13 10:11:00,83.0,76.0,30.04,NNW,339,5.0,8.0,79,99.99,,,-99.99,,2013-06-13 14:11:00,
2013-06-13 10:22:00,84.0,76.0,30.04,NW,321,4.0,7.0,76,99.99,,,-99.99,,2013-06-13 14:22:00,
2013-06-13 10:33:00,84.0,76.0,30.05,NW,325,4.0,7.0,78,99.99,,,-99.99,,2013-06-13 14:33:00,
2013-06-13 10:43:00,84.0,75.0,30.05,NW,321,5.0,8.0,75,99.99,,,-99.99,,2013-06-13 14:43:00,
2013-06-13 10:53:00,85.0,75.0,30.04,NNW,333,7.0,10.0,73,99.99,,,-99.99,,2013-06-13 14:53:00,
2013-06-13 11:02:00,85.0,75.0,30.04,WNW,291,6.0,10.0,73,99.99,,,-99.99,,2013-06-13 15:02:00,
2013-06-13 11:12:00,85.0,73.0,30.04,WNW,302,6.0,9.0,68,99.99,,,-99.99,,2013-06-13 15:12:00,
2013-06-13 11:22:00,86.0,75.0,30.04,WNW,287,5.0,9.0,69,99.99,,,-99.99,,2013-06-13 15:22:00,
2013-06-13 11:33:00,86.0,75.0,30.04,NW,321,6.0,9.0,69,99.99,,,-99.99,,2013-06-13 15:33:00,
2013-06-13 11:43:00,86.0,75.0,30.04,NW,321,6.0,9.0,69,99.99,,,-99.99,,2013-06-13 15:43:00,
2013-06-13 11:53:00,88.0,75.0,30.04,NNW,343,6.0,10.0,65,99.99,,,-99.99,,2013-06-13 15:53:00,
2013-06-13 12:02:00,88.0,75.0,30.04,NNW,343,6.0,10.0,65,99.99,,,-99.99,,2013-06-13 16:02:00,
2013-06-13 12:12:00,88.0,73.0,30.03,WNW,297,6.0,9.0,61,99.99,,,-99.99,,2013-06-13 16:12:00,
2013-06-13 12:22:00,88.0,73.0,30.03,WNW,297,6.0,9.0,61,99.99,,,-99.99,,2013-06-13 16:22:00,
2013-06-13 12:33:00,89.0,73.0,30.03,NW,315,5.0,9.0,59,99.99,,,-99.99,,2013-06-13 16:33:00,
2013-06-13 12:43:00,89.0,74.0,30.02,West,278,6.0,11.0,61,99.99,,,-99.99,,2013-06-13 16:43:00,
2013-06-13 12:53:00,89.0,74.0,30.02,WSW,252,5.0,8.0,61,99.99,,,-99.99,,2013-06-13 16:53:00,
2013-06-13 13:02:00,89.0,74.0,30.02,WSW,252,5.0,8.0,61,99.99,,,-99.99,,2013-06-13 17:02:00,
2013-06-13 13:11:00,89.0,74.0,30.02,WSW,252,5.0,8.0,61,99.99,,,-99.99,,2013-06-13 17:11:00,
2013-06-13 13:24:00,89.0,73.0,30.02,West,260,4.0,9.0,60,99.99,,,-99.99,,2013-06-13 17:24:00,
2013-06-13 13:33:00,89.0,73.0,30.02,West,260,4.0,9.0,60,99.99,,,-99.99,,2013-06-13 17:33:00,
2013-06-13 13:43:00,89.0,73.0,30.01,NW,308,6.0,11.0,60,99.99,,,-99.99,,2013-06-13 17:43:00,
2013-06-13 13:53:00,90.0,73.0,30.01,WNW,301,7.0,11.0,58,99.99,,,-99.99,,2013-06-13 17:53:00,
2013-06-13 14:02:00,90.0,73.0,30.01,WNW,301,7.0,11.0,58,99.99,,,-99.99,,2013-06-13 18:02:00,
2013-06-13 14:11:00,89.0,74.0,30.00,WNW,290,6.0,8.0,61,99.99,,,-99.99,,2013-06-13 18:11:00,
2013-06-13 14:22:00,89.0,74.0,30.00,WNW,290,6.0,8.0,61,99.99,,,-99.99,,2013-06-13 18:22:00,
2013-06-13 14:33:00,89.0,74.0,30.00,WNW,290,6.0,8.0,61,99.99,,,-99.99,,2013-06-13 18:33:00,
2013-06-13 14:43:00,89.0,74.0,30.00,WNW,290,6.0,8.0,61,99.99,,,-99.99,,2013-06-13 18:43:00,
2013-06-13 14:52:00,89.0,74.0,30.00,WNW,290,6.0,8.0,61,99.99,,,-99.99,,2013-06-13 18:52:00,
2013-06-13 15:02:00,91.0,70.0,29.98,West,266,6.0,10.0,50,99.99,,,-99.99,,2013-06-13 19:02:00,
2013-06-13 15:11:00,91.0,70.0,29.97,WNW,301,6.0,10.0,50,99.99,,,-99.99,,2013-06-13 19:11:00,
2013-06-13 15:22:00,91.0,70.0,29.97,WNW,301,6.0,10.0,50,99.99,,,-99.99,,2013-06-13 19:22:00,
2013-06-13 15:33:00,92.0,71.0,29.95,WNW,302,7.0,11.0,51,99.99,,,-99.99,,2013-06-13 19:33:00,
2013-06-13 15:43:00,92.0,70.0,29.95,West,264,6.0,11.0,49,99.99,,,-99.99,,2013-06-13 19:43:00,
2013-06-13 15:53:00,92.0,70.0,29.95,West,264,6.0,11.0,49,99.99,,,-99.99,,2013-06-13 19:53:00,
2013-06-13 16:02:00,92.0,70.0,29.95,West,264,6.0,11.0,49,99.99,,,-99.99,,2013-06-13 20:02:00,
2013-06-13 16:11:00,92.0,70.0,29.95,West,264,6.0,11.0,49,99.99,,,-99.99,,2013-06-13 20:11:00,
2013-06-13 16:22:00,92.0,70.0,29.95,West,264,6.0,11.0,49,99.99,,,-99.99,,2013-06-13 20:22:00,
2013-06-13 16:33:00,91.0,71.0,29.95,West,269,7.0,10.0,52,99.99,,,-99.99,,2013-06-13 20:33:00,
2013-06-13 16:44:00,91.0,71.0,29.95,West,269,7.0,10.0,52,99.99,,,-99.99,,2013-06-13 20:44:00,
2013-06-13 16:53:00,91.0,71.0,29.95,West,269,7.0,10.0,52,99.99,,,-99.99,,2013-06-13 20:53:00,
2013-06-13 17:02:00,89.0,70.0,29.95,West,277,8.0,11.0,54,99.99,,,-99.99,,2013-06-13 21:02:00,
2013-06-13 17:11:00,89.0,70.0,29.95,West,277,8.0,11.0,54,99.99,,,-99.99,,2013-06-13 21:11:00,
2013-06-13 17:22:00,89.0,70.0,29.95,West,277,8.0,11.0,54,99.99,,,-99.99,,2013-06-13 21:22:00,
2013-06-13 17:34:00,89.0,70.0,29.95,West,277,8.0,11.0,54,99.99,,,-99.99,,2013-06-13 21:34:00,
2013-06-13 17:43:00,81.0,72.0,29.96,South,183,11.0,15.0,75,99.99,,,-99.99,,2013-06-13 21:43:00,
2013-06-13 17:52:00,81.0,72.0,29.96,SSE,166,12.0,18.0,74,99.99,,,-99.99,,2013-06-13 21:52:00,
2013-06-13 18:02:00,80.0,72.0,29.96,SSE,163,10.0,17.0,76,99.99,,,-99.99,,2013-06-13 22:02:00,
2013-06-13 18:11:00,81.0,73.0,29.95,South,177,9.0,12.0,76,99.99,,,-99.99,,2013-06-13 22:11:00,
2013-06-13 18:22:00,80.0,72.0,29.94,SSW,195,5.0,9.0,77,99.99,,,-99.99,,2013-06-13 22:22:00,
2013-06-13 18:33:00,80.0,72.0,29.93,SSW,195,5.0,9.0,77,99.99,,,-99.99,,2013-06-13 22:33:00,
2013-06-13 18:43:00,80.0,72.0,29.93,SSW,201,5.0,10.0,78,99.99,,,-99.99,,2013-06-13 22:43:00,
2013-06-13 18:52:00,80.0,72.0,29.93,SW,226,4.0,7.0,77,99.99,,,-99.99,,2013-06-13 22:52:00,
2013-06-13 19:02:00,80.0,73.0,29.93,South,191,3.0,7.0,79,99.99,,,-99.99,,2013-06-13 23:02:00,
2013-06-13 19:11:00,81.0,74.0,29.93,SW,214,3.0,6.0,80,99.99,,,-99.99,,2013-06-13 23:11:00,
2013-06-13 19:22:00,81.0,74.0,29.93,SW,225,3.0,7.0,80,99.99,,,-99.99,,2013-06-13 23:22:00,
2013-06-13 19:32:00,81.0,74.0,29.93,SW,222,3.0,7.0,80,99.99,,,-99.99,,2013-06-13 23:32:00,
2013-06-13 19:43:00,82.0,75.0,29.92,SW,236,4.0,8.0,79,99.99,,,-99.99,,2013-06-13 23:43:00,
2013-06-13 19:52:00,82.0,74.0,29.92,WSW,243,3.0,6.0,78,99.99,,,-99.99,,2013-06-13 23:52:00,
2013-06-13 20:01:00,82.0,75.0,29.92,SW,236,4.0,6.0,79,99.99,,,-99.99,,2013-06-14 00:01:00,
2013-06-13 20:12:00,82.0,74.0,29.92,SW,221,4.0,6.0,78,99.99,,,-99.99,,2013-06-14 00:12:00,
2013-06-13 20:22:00,82.0,75.0,29.92,SSW,210,4.0,7.0,80,99.99,,,-99.99,,2013-06-14 00:22:00,
2013-06-13 20:34:00,82.0,76.0,29.92,SSW,204,3.0,6.0,81,99.99,,,-99.99,,2013-06-14 00:34:00,
2013-06-13 20:43:00,81.0,75.0,29.93,WSW,238,4.0,7.0,81,99.99,,,-99.99,,2013-06-14 00:43:00,
2013-06-13 20:53:00,81.0,75.0,29.93,SW,221,3.0,5.0,83,99.99,,,-99.99,,2013-06-14 00:53:00,
2013-06-13 21:01:00,81.0,76.0,29.93,SW,233,4.0,6.0,85,99.99,,,-99.99,,2013-06-14 01:01:00,
2013-06-13 21:11:00,81.0,76.0,29.93,SW,224,3.0,5.0,85,99.99,,,-99.99,,2013-06-14 01:11:00,
2013-06-13 21:22:00,80.0,77.0,29.93,SSW,200,3.0,5.0,90,99.99,,,-99.99,,2013-06-14 01:22:00,
2013-06-13 21:32:00,80.0,78.0,29.93,WSW,256,3.0,5.0,94,99.99,,,-99.99,,2013-06-14 01:32:00,
2013-06-13 21:43:00,80.0,77.0,29.93,West,267,5.0,7.0,91,99.99,,,-99.99,,2013-06-14 01:43:00,
2013-06-13 21:52:00,80.0,77.0,29.93,West,267,5.0,7.0,91,99.99,,,-99.99,,2013-06-14 01:52:00,
2013-06-13 22:02:00,79.0,76.0,29.93,WSW,245,4.0,6.0,92,99.99,,,-99.99,,2013-06-14 02:02:00,
2013-06-13 22:11:00,79.0,77.0,29.93,WSW,256,4.0,6.0,95,99.99,,,-99.99,,2013-06-14 02:11:00,
2013-06-13 22:22:00,78.0,77.0,29.93,West,260,5.0,8.0,97,99.99,,,-99.99,,2013-06-14 02:22:00,
2013-06-13 22:32:00,78.0,78.0,29.93,West,259,5.0,7.0,99,99.99,,,-99.99,,2013-06-14 02:32:00,
2013-06-13 22:43:00,78.0,77.0,29.93,WSW,253,4.0,7.0,98,99.99,,,-99.99,,2013-06-14 02:43:00,
2013-06-13 22:52:00,78.0,78.0,29.94,West,263,5.0,7.0,100,99.99,,,-99.99,,2013-06-14 02:52:00,
2013-06-13 23:02:00,78.0,78.0,29.95,West,280,5.0,8.0,100,99.99,,,-99.99,,2013-06-14 03:02:00,
2013-06-13 23:12:00,78.0,78.0,29.95,WSW,253,3.0,5.0,100,99.99,,,-99.99,,2013-06-14 03:12:00,
2013-06-13 23:22:00,78.0,78.0,29.95,WSW,255,3.0,4.0,100,99.99,,,-99.99,,2013-06-14 03:22:00,
2013-06-13 23:34:00,77.0,77.0,29.96,West,264,4.0,6.0,100,99.99,,,-99.99,,2013-06-14 03:34:00,
2013-06-13 23:43:00,77.0,77.0,29.96,West,264,4.0,6.0,100,99.99,,,-99.99,,2013-06-14 03:43:00,
2013-06-13 23:53:00,77.0,77.0,29.95,WSW,240,4.0,6.0,100,99.99,,,-99.99,,2013-06-14 03:53:00,